Find Starlink 36342

NORAD ID: 67649 Int'l Des: 2026-022 Owner: SPXS Country: US Constellation: starlink operational
LEOCIRCULARRETROGRADE

当前视图

正在加载3D地球...

关于 Starlink 36342

正在加载描述...

即将过境

Passes for default location (London). Set your location on the main map for personalized predictions.

高度历史

Loading altitude history...

两行轨道根数

1 67649U 26022B 26146.57059468 .00018581 00000-0 57633-3 0 9997
2 67649 97.2825 180.8021 0000458 64.2048 295.9242 15.33452563 17578
Epoch: May 26, 2026 • Age: 10 hours

当前状态

高度 472.5 km
速度 7.63 km/s
星下点 45.88°N, 129.11°E
发射日期 Feb 2, 2026
运行时间 0.3 years
类型 internet

技术详情

分类 Payload
质量 575.00 kg
干质量 530.00 kg
总质量 575.00 kg
长度 0.30 m
直径 4.10 m
跨度 29.00 m
形状 Box + pan
制造商 SPXS
平台类型 Starlink V2MO
阶段状态 In Orbit
所有者/国家 SPXS/US

Most Searched